Location: Le Rocchette
(44.3500°N, 7.8333°E)
Time: 15:33:13
(UTC+00:00)

PSLV R/B - Pass Details

Date: 29 February 2020
Orbit: 505 x 578 km, 97.8° (Epoch: 01 April)

Event Time Altitude Azimuth Distance (km) Brightness Sun altitude
Rises 04:01:22 0° 24° (NNE) 2,668 7.8 -23.2°
Reaches altitude 10° 04:03:43 10° 38° (NE) 1,786 7.1 -22.8°
Maximum altitude 04:07:00 26° 96° (E) 1,075 6.0 -22.2°
Drops below altitude 10° 04:10:20 10° 155° (SSE) 1,810 6.6 -21.6°
Sets 04:12:43 0° 167° (SSE) 2,712 7.4 -21.2°
